SCP
-0 0 1 1 1 0 0 0 0 0 0 0 0 0 0 0 0 0 0 0 0 0 0 0 0 0 0 0 0 0 0 0 0 0 0 0 0 0 0 0 0 0 -0
0 0 1 1 1 0 0 0 0 0 0 0 0 0 0 0 0 0 0 0 0 0 0 0 0 0 0 0 0 0 0 0 0 0 0 0 0 0 0 0 0 0 0
0 0 1 1 1 1 1 0 0 0 0 0 0 0 0 0 0 0 0 0 0 0 0 0 0 0 0 0 0 0 0 0 0 0 0 0 0 0 0 0 0 0 0
0 0 1 1 1 1 1 1 1 0 0 0 0 0 0 0 0 0 0 0 0 0 0 0 0 0 0 0 0 0 0 0 0 0 0 0 0 0 0 0 0 0 0
0 0 0 1 1 1 1 1 1 1 1 0 0 0 0 0 0 0 0 0 0 0 0 0 0 0 0 0 0 0 0 0 0 0 0 0 0 0 0 0 0 0 0
0 0 0 1 1 1 1 1 1 1 1 0 0 0 0 0 0 0 0 0 0 0 0 0 0 0 0 0 0 0 0 0 0 0 0 0 0 0 0 0 0 0 0
0 0 0 1 1 1 1 1 1 1 1 1 0 0 0 0 0 0 0 0 0 0 0 0 0 0 0 0 0 0 0 0 0 0 0 0 0 0 0 0 0 0 0
0 0 1 1 1 1 1 1 1 1 1 1 0 0 0 0 0 0 0 0 0 0 0 0 0 0 0 0 0 0 0 0 0 0 0 0 0 1 0 1 0 0 0
0 0 1 1 1 1 1 2 2 2 1 1 0 0 0 0 0 0 0 0 0 0 0 0 0 0 0 0 0 0 0 0 0 0 0 0 0 1 1 1 1 1 0
1 1 1 1 2 2 3 2 2 2 1 0 0 0 0 0 0 0 0 0 0 0 0 0 0 0 0 0 0 0 0 0 0 0 0 0 1 1 1 0 0 1 0
0 0 1 1 1 1 1 2 2 1 0 0 0 0 0 0 0 0 0 0 0 0 0 0 0 0 0 0 0 0 0 0 0 0 0 0 1 1 0 0 0 0 1
0 0 0 0 0 0 1 1 0 0 0 0 0 0 0 0 0 0 0 0 0 0 0 0 -0 0 0 0 0 0 0 0 0 0 0 0 1 1 0 0 0 0 1
0 0 0 0 0 0 0 0 0 0 0 0 0 0 0 0 0 0 0 0 0 0 0 0 0 0 0 0 0 0 0 0 0 0 0 0 1 1 0 0 0 0 0
0 0 0 0 0 0 0 0 0 0 0 0 0 0 0 0 0 0 0 0 0 0 0 0 0 0 0 0 0 0 0 0 0 0 0 0 1 1 0 0 0 0 0
0 0 0 0 0 0 0 0 0 0 0 0 0 0 0 0 0 0 0 0 0 0 0 0 0 0 0 0 0 0 0 0 0 0 0 0 1 1 0 0 0 0 0
0 0 0 0 0 0 0 0 0 0 0 0 0 0 0 0 0 0 0 0 0 0 0 0 0 0 0 0 0 0 0 0 0 0 0 0 1 1 1 0 0 0 0
0 0 0 0 0 0 0 0 0 0 0 0 0 0 0 0 0 0 0 0 0 0 0 0 0 0 0 0 0 0 0 0 0 0 0 0 0 1 0 0 0 0 0
0 0 0 0 0 0 0 0 0 0 0 0 0 0 0 0 0 0 0 0 0 0 0 0 0 0 0 0 0 0 0 0 0 0 0 0 0 0 0 0 0 0 0
0 0 0 0 0 0 0 0 0 0 0 0 0 0 0 0 0 0 0 0 0 0 0 0 0 0 0 0 0 0 0 0 0 0 0 0 0 0 0 0 0 0 0
0 0 0 0 0 0 0 0 0 0 0 0 0 0 0 0 0 0 0 0 0 0 0 0 0 0 0 0 0 0 0 0 0 0 0 0 0 0 0 0 0 0 0
0 0 0 0 0 0 0 0 0 0 0 0 0 0 0 0 0 0 0 0 0 0 0 0 0 -0 0 0 0 0 0 0 0 0 0 0 0 0 0 0 0 0 0
0 0 0 0 0 0 0 0 0 0 0 0 0 0 0 0 0 0 0 0 0 0 0 0 0 0 0 0 0 0 0 0 0 0 0 0 0 0 0 0 0 0 0
0 0 0 0 0 0 0 0 0 0 0 0 0 0 0 0 0 0 0 0 0 0 0 0 0 0 0 0 0 0 0 0 0 0 0 0 0 0 0 0 0 0 0
0 0 0 0 0 0 0 0 0 0 0 0 0 0 0 0 0 0 0 0 0 0 0 0 0 0 0 0 0 0 0 0 0 0 0 0 0 0 0 0 0 0 0
0 0 0 0 0 0 0 0 0 0 0 0 0 0 0 0 0 0 0 0 -0 0 0 0 0 0 0 0 0 0 0 0 0 0 0 0 0 0 0 0 0 0 0
0 0 0 0 0 0 0 0 0 0 0 0 0 0 0 0 -0 -0 0 -0 0 0 0 0 0 0 0 0 0 0 0 0 0 0 0 0 0 0 0 0 0 0 0
Wind_Speed_500mb
45 41 43 39 33 26 22 19 17 17 17 17 17 17 17 18 18 17 17 18 19 21 24 26 32 35 37 38 39 40 40 42 41 43 42 42 35 28 25 31 26 22 18
36 43 47 39 28 25 25 20 18 19 21 22 21 20 18 20 20 20 22 22 21 19 20 26 28 32 33 33 35 38 42 43 42 42 44 43 45 39 30 31 29 26 24
36 42 44 34 24 22 20 17 17 20 24 26 25 25 24 23 23 22 24 26 25 24 20 20 26 31 31 29 29 34 40 45 43 41 45 44 40 43 40 33 33 33 28
27 30 33 29 23 20 18 19 20 24 28 31 31 31 30 23 25 26 27 28 28 28 28 25 22 28 29 29 29 29 37 41 42 42 40 44 41 45 37 36 37 36 34
25 22 21 21 22 20 20 21 22 26 30 35 36 36 31 30 28 29 30 30 30 32 33 34 30 27 30 31 30 33 30 35 38 40 40 39 43 41 44 34 40 41 40
26 20 22 24 23 23 21 20 22 26 31 36 36 36 37 37 37 35 35 38 39 35 34 36 37 36 31 33 35 33 28 31 34 39 40 35 39 40 43 40 33 42 43
27 25 26 26 22 18 16 18 22 24 28 31 33 35 38 40 44 42 43 41 40 40 39 39 38 42 39 34 36 32 34 35 34 35 39 37 37 40 40 43 38 40 48
22 27 27 28 22 18 17 20 23 26 27 26 28 30 33 38 44 48 49 51 49 45 44 44 43 46 43 38 37 35 36 39 34 33 38 38 35 37 44 43 40 42 51
32 29 30 28 22 22 23 25 27 28 32 25 24 25 30 38 42 47 52 55 54 53 49 51 48 49 48 45 41 36 40 34 37 33 35 39 34 35 44 44 44 45 50
37 33 29 28 26 25 29 31 32 32 34 27 26 29 35 30 32 31 31 36 41 47 49 47 49 54 54 47 46 43 39 38 35 34 37 38 35 35 41 45 50 49 52
42 37 34 34 34 32 32 32 33 34 33 30 29 31 26 27 23 19 24 26 28 27 30 35 39 45 54 51 48 45 40 41 37 34 37 39 37 39 40 47 52 53 55
46 42 43 41 39 34 32 31 30 33 30 31 30 27 24 32 24 23 21 21 22 25 29 34 34 38 44 50 49 44 43 40 39 36 38 41 38 42 37 43 51 57 59
40 46 50 49 43 36 28 28 28 23 25 26 28 27 28 31 26 22 20 19 21 26 32 28 30 38 42 45 51 49 40 41 37 36 39 43 39 41 39 41 52 59 67
50 54 55 54 45 36 26 26 18 16 17 18 20 25 31 26 25 22 19 19 20 22 22 24 25 31 36 40 47 45 40 40 38 36 40 44 38 37 40 44 49 64 72
58 62 60 56 46 33 24 19 13 16 16 15 19 23 27 26 25 22 20 21 25 24 22 23 26 31 37 43 42 37 35 38 39 37 41 44 38 36 42 49 52 68 71
62 68 67 57 41 27 20 12 10 11 12 17 20 23 26 27 27 27 26 21 24 26 26 26 26 30 38 39 36 32 37 39 37 38 41 40 39 35 38 46 50 53 61
67 64 66 53 38 25 15 12 10 13 15 23 22 24 24 25 25 27 27 27 23 26 27 26 27 29 35 37 38 34 40 38 34 38 39 38 38 31 36 44 40 50 62
65 65 58 45 31 20 14 10 8 12 20 24 25 26 25 25 25 25 28 27 24 27 26 27 29 29 34 37 38 35 42 35 34 37 33 36 35 31 37 34 34 46 51
65 60 51 38 25 16 12 8 8 14 24 24 23 22 23 25 24 27 24 22 24 24 25 26 29 29 31 34 36 35 43 34 32 35 32 35 33 31 34 37 37 47 47
64 55 43 30 22 16 13 8 9 17 25 27 24 18 20 20 23 25 22 23 23 20 23 26 30 29 30 31 30 32 35 30 26 32 31 34 35 32 33 40 39 50 58
65 54 40 28 24 18 14 9 10 19 25 23 22 16 18 21 20 21 21 22 21 18 17 18 32 32 31 30 28 30 29 26 28 35 33 36 37 32 36 37 49 55 51
68 48 34 28 22 18 12 8 13 21 20 26 19 14 17 20 19 20 22 18 16 14 15 22 31 36 34 32 30 29 19 21 30 29 31 33 33 32 35 50 57 60 76
62 44 32 29 21 16 9 6 13 18 23 25 18 12 18 13 9 15 20 17 15 12 18 24 30 36 36 33 28 21 16 13 34 30 30 31 31 35 44 45 60 65 66
52 36 33 27 19 13 9 6 12 18 24 18 13 11 7 2 5 11 15 15 14 15 20 24 29 33 33 30 34 32 14 14 21 15 24 27 31 31 36 51 70 70 65
43 36 33 25 17 12 14 9 10 18 20 13 10 7 3 4 8 14 17 17 16 16 20 23 29 30 28 28 34 34 31 7 31 28 26 35 35 38 47 48 66 75 73
38 36 32 25 15 13 14 8 12 17 16 13 12 10 9 12 15 21 21 17 15 14 14 19 27 30 27 25 31 39 27 27 30 32 32 44 46 43 41 60 63 70 78
Wind_Direction_500mb
190 189 197 202 207 212 224 237 248 259 262 265 263 261 266 270 274 274 270 262 261 261 256 250 252 240 237 234 232 231 231 232 229 231 230 224 222 228 234 213 203 206 186
172 185 196 201 207 218 227 233 253 261 259 260 263 262 262 271 276 282 289 288 280 270 263 256 249 251 238 237 234 235 233 233 234 232 234 232 228 231 231 216 207 199 183
181 188 194 200 206 223 228 243 267 269 264 258 264 262 257 259 256 266 274 280 282 280 273 256 257 249 246 241 241 241 239 233 234 237 236 238 234 233 227 216 204 199 198
177 190 195 206 210 219 229 247 266 267 266 263 265 264 258 252 249 258 267 271 271 274 275 269 253 255 248 245 244 245 244 241 235 236 238 239 236 233 231 223 214 206 199
177 187 194 205 215 223 233 258 273 275 272 265 269 267 267 261 264 267 271 269 261 261 269 269 262 251 252 246 245 248 246 250 242 239 236 239 237 237 232 231 219 213 209
186 194 196 202 212 221 239 264 279 285 276 274 270 263 262 268 271 272 265 258 261 260 257 258 263 261 252 249 245 242 249 256 247 242 236 238 239 233 234 230 221 213 205
194 201 202 205 212 227 251 270 279 288 289 277 266 262 264 265 275 273 269 262 260 260 258 254 252 254 258 247 245 237 241 243 250 246 237 235 235 230 231 227 229 219 208
217 209 208 209 214 233 251 287 289 291 304 284 273 267 270 271 271 269 266 264 263 258 256 255 251 250 251 250 245 236 236 245 247 243 238 236 233 228 228 228 226 221 208
216 219 213 215 221 231 259 280 286 292 305 295 280 274 279 278 274 270 264 260 260 259 255 251 248 246 248 246 243 236 236 241 245 243 240 235 233 226 226 225 220 217 211
217 225 222 218 220 234 261 273 280 295 299 292 283 282 290 284 280 270 264 260 259 257 257 253 245 239 243 241 239 238 235 239 240 241 238 231 229 225 223 218 216 217 209
218 222 225 223 223 233 257 267 274 291 290 278 275 285 286 305 299 280 269 266 263 263 267 260 245 238 237 235 235 238 235 234 236 239 234 224 224 222 223 217 213 214 206
219 225 228 228 222 240 253 261 277 286 283 277 284 290 294 310 288 287 273 264 261 255 261 252 241 235 235 230 231 234 236 232 234 235 233 222 223 222 225 216 211 210 206
228 226 230 224 222 236 246 263 276 280 288 287 288 286 292 296 278 289 275 274 259 257 258 254 247 232 233 225 226 232 241 231 232 232 230 222 224 224 224 213 208 208 199
225 224 223 220 223 233 244 273 270 297 299 288 288 282 283 279 278 279 277 264 259 255 265 251 249 234 229 228 227 231 237 228 227 228 226 222 223 225 219 220 210 209 203
227 224 221 216 220 232 258 266 274 291 299 298 298 289 276 276 273 280 277 271 265 259 265 261 249 234 227 228 226 224 224 219 222 226 222 221 222 228 222 222 209 207 207
226 223 220 215 217 230 255 255 278 310 301 303 302 296 285 280 274 276 259 273 272 264 264 263 250 238 225 225 220 220 214 212 220 219 216 221 222 228 224 219 212 210 202
228 222 211 209 215 232 251 257 278 305 320 315 302 291 288 280 277 269 259 267 273 266 260 257 245 233 219 217 218 221 211 209 218 212 212 219 222 229 226 214 207 203 206
219 207 203 207 216 229 244 251 298 327 326 316 298 284 282 282 274 273 266 258 264 257 259 259 236 231 216 214 217 221 211 211 214 207 214 218 222 232 223 207 211 205 200
214 205 200 206 217 230 240 258 307 328 331 323 311 291 282 278 274 263 259 250 252 259 258 248 229 224 218 213 209 218 208 217 214 216 214 227 224 228 225 219 216 197 186
207 203 206 209 215 223 228 247 309 324 325 322 313 289 279 283 265 256 249 232 245 261 256 241 221 214 211 202 209 206 211 221 222 220 225 228 229 233 226 223 202 188 196
202 200 201 211 208 215 215 248 313 326 326 327 323 294 288 280 271 251 228 230 246 260 251 232 206 200 203 199 202 209 207 218 231 228 234 218 225 230 219 201 184 187 185
199 192 200 202 202 196 217 255 314 321 327 327 324 300 295 284 268 240 218 230 241 239 224 189 185 195 196 193 203 202 209 222 221 225 209 216 221 218 209 194 192 188 174
194 189 202 198 192 192 213 265 311 324 322 324 330 303 299 298 262 224 206 216 217 208 186 181 188 190 194 200 199 177 154 188 206 216 207 212 213 205 199 195 187 168 160
185 190 195 191 184 193 210 254 314 333 334 331 341 330 305 334 179 169 196 192 185 187 186 182 186 190 200 201 190 198 180 185 174 172 205 206 193 193 204 199 197 178 171
181 191 187 182 178 211 222 263 320 339 346 345 349 328 306 204 188 174 166 172 174 178 183 186 188 195 200 201 206 198 213 237 191 165 163 178 194 181 172 180 172 177 162
180 185 183 180 189 207 211 238 324 335 343 356 348 330 301 237 194 167 165 163 162 155 166 176 183 192 206 208 211 203 206 225 183 171 150 165 164 161 173 177 167 172 162
Wind_Speed_850mb
45 41 43 39 33 26 22 19 17 17 17 17 17 17 17 18 18 17 17 18 19 21 24 26 32 35 37 38 39 40 40 42 41 43 42 42 35 28 25 31 26 22 18
36 43 47 39 28 25 25 20 18 19 21 22 21 20 18 20 20 20 22 22 21 19 20 26 28 32 33 33 35 38 42 43 42 42 44 43 45 39 30 31 29 26 24
36 42 44 34 24 22 20 17 17 20 24 26 25 25 24 23 23 22 24 26 25 24 20 20 26 31 31 29 29 34 40 45 43 41 45 44 40 43 40 33 33 33 28
27 30 33 29 23 20 18 19 20 24 28 31 31 31 30 23 25 26 27 28 28 28 28 25 22 28 29 29 29 29 37 41 42 42 40 44 41 45 37 36 37 36 34
25 22 21 21 22 20 20 21 22 26 30 35 36 36 31 30 28 29 30 30 30 32 33 34 30 27 30 31 30 33 30 35 38 40 40 39 43 41 44 34 40 41 40
26 20 22 24 23 23 21 20 22 26 31 36 36 36 37 37 37 35 35 38 39 35 34 36 37 36 31 33 35 33 28 31 34 39 40 35 39 40 43 40 33 42 43
27 25 26 26 22 18 16 18 22 24 28 31 33 35 38 40 44 42 43 41 40 40 39 39 38 42 39 34 36 32 34 35 34 35 39 37 37 40 40 43 38 40 48
22 27 27 28 22 18 17 20 23 26 27 26 28 30 33 38 44 48 49 51 49 45 44 44 43 46 43 38 37 35 36 39 34 33 38 38 35 37 44 43 40 42 51
32 29 30 28 22 22 23 25 27 28 32 25 24 25 30 38 42 47 52 55 54 53 49 51 48 49 48 45 41 36 40 34 37 33 35 39 34 35 44 44 44 45 50
37 33 29 28 26 25 29 31 32 32 34 27 26 29 35 30 32 31 31 36 41 47 49 47 49 54 54 47 46 43 39 38 35 34 37 38 35 35 41 45 50 49 52
42 37 34 34 34 32 32 32 33 34 33 30 29 31 26 27 23 19 24 26 28 27 30 35 39 45 54 51 48 45 40 41 37 34 37 39 37 39 40 47 52 53 55
46 42 43 41 39 34 32 31 30 33 30 31 30 27 24 32 24 23 21 21 22 25 29 34 34 38 44 50 49 44 43 40 39 36 38 41 38 42 37 43 51 57 59
40 46 50 49 43 36 28 28 28 23 25 26 28 27 28 31 26 22 20 19 21 26 32 28 30 38 42 45 51 49 40 41 37 36 39 43 39 41 39 41 52 59 67
50 54 55 54 45 36 26 26 18 16 17 18 20 25 31 26 25 22 19 19 20 22 22 24 25 31 36 40 47 45 40 40 38 36 40 44 38 37 40 44 49 64 72
58 62 60 56 46 33 24 19 13 16 16 15 19 23 27 26 25 22 20 21 25 24 22 23 26 31 37 43 42 37 35 38 39 37 41 44 38 36 42 49 52 68 71
62 68 67 57 41 27 20 12 10 11 12 17 20 23 26 27 27 27 26 21 24 26 26 26 26 30 38 39 36 32 37 39 37 38 41 40 39 35 38 46 50 53 61
67 64 66 53 38 25 15 12 10 13 15 23 22 24 24 25 25 27 27 27 23 26 27 26 27 29 35 37 38 34 40 38 34 38 39 38 38 31 36 44 40 50 62
65 65 58 45 31 20 14 10 8 12 20 24 25 26 25 25 25 25 28 27 24 27 26 27 29 29 34 37 38 35 42 35 34 37 33 36 35 31 37 34 34 46 51
65 60 51 38 25 16 12 8 8 14 24 24 23 22 23 25 24 27 24 22 24 24 25 26 29 29 31 34 36 35 43 34 32 35 32 35 33 31 34 37 37 47 47
64 55 43 30 22 16 13 8 9 17 25 27 24 18 20 20 23 25 22 23 23 20 23 26 30 29 30 31 30 32 35 30 26 32 31 34 35 32 33 40 39 50 58
65 54 40 28 24 18 14 9 10 19 25 23 22 16 18 21 20 21 21 22 21 18 17 18 32 32 31 30 28 30 29 26 28 35 33 36 37 32 36 37 49 55 51
68 48 34 28 22 18 12 8 13 21 20 26 19 14 17 20 19 20 22 18 16 14 15 22 31 36 34 32 30 29 19 21 30 29 31 33 33 32 35 50 57 60 76
62 44 32 29 21 16 9 6 13 18 23 25 18 12 18 13 9 15 20 17 15 12 18 24 30 36 36 33 28 21 16 13 34 30 30 31 31 35 44 45 60 65 66
52 36 33 27 19 13 9 6 12 18 24 18 13 11 7 2 5 11 15 15 14 15 20 24 29 33 33 30 34 32 14 14 21 15 24 27 31 31 36 51 70 70 65
43 36 33 25 17 12 14 9 10 18 20 13 10 7 3 4 8 14 17 17 16 16 20 23 29 30 28 28 34 34 31 7 31 28 26 35 35 38 47 48 66 75 73
38 36 32 25 15 13 14 8 12 17 16 13 12 10 9 12 15 21 21 17 15 14 14 19 27 30 27 25 31 39 27 27 30 32 32 44 46 43 41 60 63 70 78
Wind_Direction_850mb
190 189 197 202 207 212 224 237 248 259 262 265 263 261 266 270 274 274 270 262 261 261 256 250 252 240 237 234 232 231 231 232 229 231 230 224 222 228 234 213 203 206 186
172 185 196 201 207 218 227 233 253 261 259 260 263 262 262 271 276 282 289 288 280 270 263 256 249 251 238 237 234 235 233 233 234 232 234 232 228 231 231 216 207 199 183
181 188 194 200 206 223 228 243 267 269 264 258 264 262 257 259 256 266 274 280 282 280 273 256 257 249 246 241 241 241 239 233 234 237 236 238 234 233 227 216 204 199 198
177 190 195 206 210 219 229 247 266 267 266 263 265 264 258 252 249 258 267 271 271 274 275 269 253 255 248 245 244 245 244 241 235 236 238 239 236 233 231 223 214 206 199
177 187 194 205 215 223 233 258 273 275 272 265 269 267 267 261 264 267 271 269 261 261 269 269 262 251 252 246 245 248 246 250 242 239 236 239 237 237 232 231 219 213 209
186 194 196 202 212 221 239 264 279 285 276 274 270 263 262 268 271 272 265 258 261 260 257 258 263 261 252 249 245 242 249 256 247 242 236 238 239 233 234 230 221 213 205
194 201 202 205 212 227 251 270 279 288 289 277 266 262 264 265 275 273 269 262 260 260 258 254 252 254 258 247 245 237 241 243 250 246 237 235 235 230 231 227 229 219 208
217 209 208 209 214 233 251 287 289 291 304 284 273 267 270 271 271 269 266 264 263 258 256 255 251 250 251 250 245 236 236 245 247 243 238 236 233 228 228 228 226 221 208
216 219 213 215 221 231 259 280 286 292 305 295 280 274 279 278 274 270 264 260 260 259 255 251 248 246 248 246 243 236 236 241 245 243 240 235 233 226 226 225 220 217 211
217 225 222 218 220 234 261 273 280 295 299 292 283 282 290 284 280 270 264 260 259 257 257 253 245 239 243 241 239 238 235 239 240 241 238 231 229 225 223 218 216 217 209
218 222 225 223 223 233 257 267 274 291 290 278 275 285 286 305 299 280 269 266 263 263 267 260 245 238 237 235 235 238 235 234 236 239 234 224 224 222 223 217 213 214 206
219 225 228 228 222 240 253 261 277 286 283 277 284 290 294 310 288 287 273 264 261 255 261 252 241 235 235 230 231 234 236 232 234 235 233 222 223 222 225 216 211 210 206
228 226 230 224 222 236 246 263 276 280 288 287 288 286 292 296 278 289 275 274 259 257 258 254 247 232 233 225 226 232 241 231 232 232 230 222 224 224 224 213 208 208 199
225 224 223 220 223 233 244 273 270 297 299 288 288 282 283 279 278 279 277 264 259 255 265 251 249 234 229 228 227 231 237 228 227 228 226 222 223 225 219 220 210 209 203
227 224 221 216 220 232 258 266 274 291 299 298 298 289 276 276 273 280 277 271 265 259 265 261 249 234 227 228 226 224 224 219 222 226 222 221 222 228 222 222 209 207 207
226 223 220 215 217 230 255 255 278 310 301 303 302 296 285 280 274 276 259 273 272 264 264 263 250 238 225 225 220 220 214 212 220 219 216 221 222 228 224 219 212 210 202
228 222 211 209 215 232 251 257 278 305 320 315 302 291 288 280 277 269 259 267 273 266 260 257 245 233 219 217 218 221 211 209 218 212 212 219 222 229 226 214 207 203 206
219 207 203 207 216 229 244 251 298 327 326 316 298 284 282 282 274 273 266 258 264 257 259 259 236 231 216 214 217 221 211 211 214 207 214 218 222 232 223 207 211 205 200
214 205 200 206 217 230 240 258 307 328 331 323 311 291 282 278 274 263 259 250 252 259 258 248 229 224 218 213 209 218 208 217 214 216 214 227 224 228 225 219 216 197 186
207 203 206 209 215 223 228 247 309 324 325 322 313 289 279 283 265 256 249 232 245 261 256 241 221 214 211 202 209 206 211 221 222 220 225 228 229 233 226 223 202 188 196
202 200 201 211 208 215 215 248 313 326 326 327 323 294 288 280 271 251 228 230 246 260 251 232 206 200 203 199 202 209 207 218 231 228 234 218 225 230 219 201 184 187 185
199 192 200 202 202 196 217 255 314 321 327 327 324 300 295 284 268 240 218 230 241 239 224 189 185 195 196 193 203 202 209 222 221 225 209 216 221 218 209 194 192 188 174
194 189 202 198 192 192 213 265 311 324 322 324 330 303 299 298 262 224 206 216 217 208 186 181 188 190 194 200 199 177 154 188 206 216 207 212 213 205 199 195 187 168 160
185 190 195 191 184 193 210 254 314 333 334 331 341 330 305 334 179 169 196 192 185 187 186 182 186 190 200 201 190 198 180 185 174 172 205 206 193 193 204 199 197 178 171
181 191 187 182 178 211 222 263 320 339 346 345 349 328 306 204 188 174 166 172 174 178 183 186 188 195 200 201 206 198 213 237 191 165 163 178 194 181 172 180 172 177 162
180 185 183 180 189 207 211 238 324 335 343 356 348 330 301 237 194 167 165 163 162 155 166 176 183 192 206 208 211 203 206 225 183 171 150 165 164 161 173 177 167 172 162